| time (UTC) | temp F | wind direction | speed knots | gust knots | rain 1hr in | rain 24hr in | rain mn in | humidity % | barometer mb |
| 20260506044559 | 63 | 157 | 0.0 | 1.7 | 0.00 | 0.00 | 0.00 | 62 | 1006.5 |
| 20260506043104 | 64 | 157 | 0.9 | 5.2 | 0.00 | 0.00 | 0.00 | 62 | 1006.4 |
| 20260506041553 | 65 | 186 | 1.7 | 7.0 | 0.00 | 0.00 | 0.00 | 60 | 1006.4 |
| 20260506040100 | 65 | 154 | 2.6 | 6.1 | 0.00 | 0.00 | 0.00 | 58 | 1006.3 |
| 20260506034551 | 65 | 149 | 2.6 | 7.8 | 0.00 | 0.00 | 0.00 | 59 | 1006.3 |
| 20260506033050 | 65 | 142 | 3.5 | 7.8 | 0.00 | 0.00 | 0.00 | 58 | 1006.3 |
| 20260506031551 | 64 | 147 | 2.6 | 7.0 | 0.00 | 0.00 | 0.00 | 59 | 1006.3 |
| 20260506030054 | 64 | 140 | 2.6 | 6.1 | 0.00 | 0.00 | 0.00 | 61 | 1006.1 |
| 20260506024555 | 65 | 136 | 1.7 | 4.3 | 0.00 | 0.00 | 0.00 | 57 | 1006.3 |
| 20260506023046 | 65 | 149 | 1.7 | 4.3 | 0.00 | 0.00 | 0.00 | 55 | 1006.3 |
| 20260506021559 | 66 | 152 | 2.6 | 7.0 | 0.00 | 0.00 | 0.00 | 57 | 1006.2 |
| 20260506020046 | 67 | 141 | 1.7 | 6.1 | 0.00 | 0.00 | 0.00 | 54 | 1006.3 |
| 20260506014545 | 68 | 169 | 1.7 | 6.1 | 0.00 | 0.00 | 0.00 | 50 | 1006.3 |
| 20260506013054 | 69 | 157 | 1.7 | 5.2 | 0.00 | 0.00 | 0.00 | 50 | 1006.2 |
| 20260506011552 | 70 | 184 | 4.3 | 10.4 | 0.00 | 0.00 | 0.00 | 49 | 1006.0 |
| 20260506010043 | 70 | 178 | 3.5 | 7.0 | 0.00 | 0.00 | 0.00 | 48 | 1005.8 |
| 20260506004542 | 70 | 175 | 3.5 | 9.6 | 0.00 | 0.00 | 0.00 | 48 | 1005.7 |
| 20260506003042 | 70 | 138 | 2.6 | 7.0 | 0.00 | 0.00 | 0.00 | 49 | 1005.6 |
| 20260506001641 | 71 | 146 | 3.5 | 7.8 | 0.00 | 0.00 | 0.00 | 47 | 1005.2 |
| 20260506000045 | 73 | 169 | 4.3 | 9.6 | 0.00 | 0.00 | 0.00 | 45 | 1005.0 |
| 20260505234540 | 75 | 141 | 3.5 | 8.7 | 0.00 | 0.00 | 0.00 | 46 | 1005.0 |
| 20260505233039 | 76 | 195 | 4.3 | 11.3 | 0.00 | 0.00 | 0.00 | 45 | 1004.9 |
| 20260505231548 | 76 | 167 | 4.3 | 12.2 | 0.00 | 0.00 | 0.00 | 45 | 1004.9 |
| 20260505230039 | 77 | 169 | 5.2 | 13.9 | 0.00 | 0.00 | 0.00 | 44 | 1004.8 |
| 20260505224538 | 77 | 188 | 4.3 | 11.3 | 0.00 | 0.00 | 0.00 | 44 | 1004.8 |
| 20260505223037 | 78 | 145 | 6.1 | 13.0 | 0.00 | 0.00 | 0.00 | 43 | 1004.7 |
| 20260505221538 | 78 | 159 | 6.1 | 12.2 | 0.00 | 0.00 | 0.00 | 42 | 1004.7 |
| 20260505220039 | 79 | 138 | 5.2 | 17.4 | 0.00 | 0.00 | 0.00 | 39 | 1004.8 |
| 20260505214559 | 80 | 178 | 4.3 | 17.4 | 0.00 | 0.00 | 0.00 | 36 | 1004.7 |
| 20260505213035 | 81 | 173 | 7.8 | 14.8 | 0.00 | 0.00 | 0.00 | 35 | 1004.8 |
| 20260505211535 | 83 | 148 | 6.1 | 20.0 | 0.00 | 0.00 | 0.00 | 36 | 1004.6 |
| 20260505210036 | 83 | 170 | 7.0 | 17.4 | 0.00 | 0.00 | 0.00 | 36 | 1004.6 |
| 20260505204533 | 84 | 129 | 11.3 | 17.4 | 0.00 | 0.00 | 0.00 | 36 | 1004.7 |
| 20260505203027 | 83 | 128 | 7.8 | 15.6 | 0.00 | 0.00 | 0.00 | 36 | 1004.6 |
| 20260505201525 | 83 | 167 | 5.2 | 17.4 | 0.00 | 0.00 | 0.00 | 39 | 1004.7 |
| 20260505200029 | 83 | 143 | 9.6 | 15.6 | 0.00 | 0.00 | 0.00 | 37 | 1005.0 |
| 20260505194523 | 84 | 138 | 8.7 | 19.1 | 0.00 | 0.00 | 0.00 | 36 | 1005.0 |
| 20260505193021 | 83 | 157 | 5.2 | 25.2 | 0.00 | 0.00 | 0.00 | 41 | 1005.2 |
| 20260505191519 | 83 | 178 | 8.7 | 18.2 | 0.00 | 0.00 | 0.00 | 38 | 1005.4 |
| 20260505190025 | 83 | 150 | 10.4 | 22.6 | 0.00 | 0.00 | 0.00 | 41 | 1005.4 |
| 20260505184516 | 83 | 167 | 8.7 | 17.4 | 0.00 | 0.00 | 0.00 | 43 | 1005.7 |
| 20260505183016 | 83 | 168 | 5.2 | 18.2 | 0.00 | 0.00 | 0.00 | 46 | 1005.9 |
| 20260505181510 | 82 | 183 | 5.2 | 16.5 | 0.00 | 0.00 | 0.00 | 44 | 1006.1 |
| 20260505180014 | 81 | 107 | 7.8 | 15.6 | 0.00 | 0.00 | 0.00 | 41 | 1006.2 |
| 20260505174509 | 81 | 171 | 10.4 | 21.7 | 0.00 | 0.00 | 0.00 | 45 | 1006.3 |
| 20260505173007 | 82 | 136 | 7.8 | 16.5 | 0.00 | 0.00 | 0.00 | 45 | 1006.3 |
| 20260505171508 | 82 | 193 | 7.8 | 14.8 | 0.00 | 0.00 | 0.00 | 43 | 1006.5 |
| 20260505170007 | 82 | 165 | 6.1 | 15.6 | 0.00 | 0.00 | 0.00 | 45 | 1006.7 |
| 20260505164501 | 81 | 174 | 2.6 | 12.2 | 0.00 | 0.00 | 0.00 | 50 | 1006.8 |
| 20260505163059 | 81 | 182 | 8.7 | 13.9 | 0.00 | 0.00 | 0.00 | 43 | 1007.1 |
| 20260505161605 | 80 | 169 | 8.7 | 16.5 | 0.00 | 0.00 | 0.00 | 43 | 1007.4 |
| 20260505153101 | 79 | 197 | 7.0 | 11.3 | 0.00 | 0.00 | 0.00 | 47 | 1007.9 |
| 20260505151600 | 79 | 140 | 7.0 | 18.2 | 0.00 | 0.00 | 0.00 | 49 | 1007.8 |
| 20260505124523 | 66 | 164 | 5.2 | 12.2 | 0.00 | 0.00 | 0.00 | 67 | 1008.7 |
| 20260505123014 | 65 | 146 | 7.0 | 10.4 | 0.00 | 0.00 | 0.00 | 66 | 1008.9 |
| 20260505121512 | 64 | 173 | 5.2 | 9.6 | 0.00 | 0.00 | 0.00 | 69 | 1009.0 |
| 20260505120020 | 63 | 174 | 3.5 | 7.0 | 0.00 | 0.00 | 0.00 | 69 | 1009.1 |
| 20260505114506 | 62 | 153 | 4.3 | 8.7 | 0.00 | 0.00 | 0.00 | 70 | 1009.0 |
| 20260505113003 | 61 | 185 | 3.5 | 7.8 | 0.00 | 0.00 | 0.00 | 72 | 1008.7 |
| 20260505111503 | 59 | 159 | 4.3 | 7.8 | 0.00 | 0.00 | 0.00 | 74 | 1008.6 |
| 20260505101556 | 59 | 162 | 2.6 | 6.1 | 0.00 | 0.00 | 0.00 | 73 | 1008.1 |
| 20260505100054 | 59 | 185 | 2.6 | 8.7 | 0.00 | 0.00 | 0.00 | 73 | 1007.9 |
| 20260505094553 | 59 | 153 | 3.5 | 10.4 | 0.00 | 0.00 | 0.00 | 74 | 1007.9 |
| 20260505093058 | 59 | 145 | 1.7 | 9.6 | 0.00 | 0.00 | 0.00 | 74 | 1007.7 |
| 20260505091602 | 59 | 144 | 2.6 | 10.4 | 0.00 | 0.00 | 0.00 | 74 | 1007.7 |
| 20260505090050 | 59 | 150 | 2.6 | 9.6 | 0.00 | 0.00 | 0.00 | 74 | 1007.7 |
| 20260505084552 | 59 | 157 | 1.7 | 7.8 | 0.00 | 0.00 | 0.00 | 73 | 1007.7 |
| 20260505083054 | 60 | 158 | 1.7 | 7.0 | 0.00 | 0.00 | 0.00 | 72 | 1007.5 |
| 20260505081550 | 60 | 152 | 3.5 | 10.4 | 0.00 | 0.00 | 0.00 | 73 | 1007.5 |
| 20260505080049 | 59 | 123 | 4.3 | 9.6 | 0.00 | 0.00 | 0.00 | 74 | 1007.5 |
| 20260505074547 | 57 | 182 | 2.6 | 8.7 | 0.00 | 0.00 | 0.00 | 76 | 1007.5 |
| 20260505073147 | 57 | 160 | 1.7 | 7.8 | 0.00 | 0.00 | 0.00 | 76 | 1007.3 |
| 20260505071554 | 57 | 159 | 0.9 | 4.3 | 0.00 | 0.00 | 0.00 | 76 | 1007.3 |
| 20260505070041 | 57 | 171 | 1.7 | 5.2 | 0.00 | 0.00 | 0.00 | 76 | 1007.2 |
| 20260505064541 | 58 | 142 | 1.7 | 4.3 | 0.00 | 0.00 | 0.00 | 77 | 1007.2 |
| 20260505063038 | 58 | 159 | 2.6 | 5.2 | 0.00 | 0.00 | 0.00 | 77 | 1007.3 |
| 20260505061537 | 58 | 152 | 2.6 | 6.1 | 0.00 | 0.00 | 0.00 | 77 | 1007.5 |
| 20260505060045 | 58 | 162 | 0.9 | 6.1 | 0.00 | 0.00 | 0.00 | 75 | 1007.6 |